Regional Weather Roundup
Issued by NWS

Home | Current Version | Previous Version | Text Only | Print | Product List | Glossary Off
Versions: 1 2 3 4 5 6 7 8 9 10 11 12 13 14 15 16 17 18 19 20 21 22 23 24 25 26 27

000
ASUS43 KDMX 231407
RWRIA

WEATHER ROUNDUP FOR IOWA
NATIONAL WEATHER SERVICE DES MOINES IA
900 AM CDT THU OCT 23 2014

NOTE: "FAIR" INDICATES FEW OR NO CLOUDS BELOW 12,000 FEET WITH NO
SIGNIFICANT WEATHER AND/OR OBSTRUCTIONS TO VISIBILITY.

* - THESE STATIONS ARE NOT NWS STATIONS...THUS NOT UNDER NWS
QUALITY CONTROL.  THEY ALSO DO NOT REPORT WEATHER SUCH
AS PRECIPITATION OR FOG.

IAZ001>003-012>014-020>022-031>034-043>046-231500-
   NORTHWEST IOWA

CITY           SKY/WX    TMP DP  RH WIND       PRES   REMARKS
CARROLL *      CLOUDY    59  59 100 W7        30.04R FOG
CHEROKEE *     FOG       50  50 100 CALM      30.05R VSB 1/4
DENISON *      CLOUDY    57  57 100 NW7       30.04R
LE MARS *      FOG       48  48 100 CALM      30.05S VSB 0
ORANGE CITY *  FOG       50  48  93 CALM      30.04S VSB 1/2
SHELDON *      FOG       45  45 100 CALM      30.03R VSB 0
SIOUX CITY     FOG       49  48  97 CALM      30.06R VSB 1/2
SPENCER        FOG       50  49  96 W3        30.04R VSB<1/4
STORM LAKE *   FOG       52  52 100 NW7       30.05R VSB 0
$$

IAZ055>058-069>071-079>083-090>094-231500-
   SOUTHWEST IOWA

CITY           SKY/WX    TMP DP  RH WIND       PRES   REMARKS
ATLANTIC *     CLOUDY    61  59  94 SW6       30.03S FOG
AUDUBON *      CLOUDY    59  54  82 CALM      30.05R HAZE
CLARINDA *     CLOUDY    61  61 100 SW6       30.07R
COUNCIL BLFS * CLOUDY    61  61 100 SW6       30.04R FOG
CRESTON *      FOG       55  55 100 SW5       30.06R VSB 0
HARLAN  *      CLOUDY    59  59 100 W6        30.07S FOG
LAMONI         LGT RAIN  52  50  93 S8        30.06R
RED OAK *      CLOUDY    61  61 100 W10       30.05R FOG
SHENANDOAH *   PTSUNNY   61  61 100 SW5       30.06R FOG
$$

IAZ047>049-059>061-072>074-084-231500-
   CENTRAL IOWA

CITY           SKY/WX    TMP DP  RH WIND       PRES   REMARKS
AMES           CLOUDY    53  51  93 S3        30.03S FOG
ANKENY *       CLOUDY    54  54 100 S6        30.04S
CHARITON *     PTSUNNY   54  50  87 S8        30.07R
DES MOINES     CLOUDY    55  52  89 S7        30.05R
GRINNELL*      LGT RAIN  50  45  81 S7        30.06S
KNOXVILLE *    CLOUDY    54  46  76 S8        30.04S
MARSHALLTOWN   CLOUDY    49  47  93 SE6       30.04S
PELLA *        CLOUDY    52  46  82 S3        30.07S
PERRY *        CLOUDY    57  57 100 SW5       30.03S FOG
$$

IAZ004>006-015-016-023>025-035-036-231500-
   NORTH CENTRAL IOWA

CITY           SKY/WX    TMP DP  RH WIND       PRES   REMARKS
ALGONA *       FOG       55  55 100 CALM      30.03R VSB 0
CLARION *      CLOUDY    52  52 100 S7        30.02S FOG
ESTHERVILLE    FOG       49  49 100 W6        30.03R VSB 1/4
FORT DODGE *   CLOUDY    55  52  88 SW5       30.04R
MASON CITY     FOG       49  49 100 S8        30.04R VSB 1
FOREST CITY *  FOG       50  50 100 CALM      30.03R VSB 3/4
IOWA FALLS *   CLOUDY    50  48  93 S5        30.05R
$$

IAZ007>011-017>019-026>030-037>042-050>054-066-231500-
   NORTHEAST IOWA

CITY           SKY/WX    TMP DP  RH WIND       PRES   REMARKS
CEDAR RAPIDS   LGT RAIN  47  43  86 SE9       30.08R
CHARLES CITY * CLOUDY    48  46  93 S7        30.05R FOG
CLINTON *      CLOUDY    43  37  81 S10G16    30.16F
DECORAH *      RAIN      46  46 100 S9        30.06R
DUBUQUE        CLOUDY    45  38  76 S13       30.10S
MONTICELLO *   CLOUDY    46  41  81 SE6       30.10R
OELWEIN *      LGT RAIN  48  45  87 S9        30.07R
WATERLOO       RAIN      47  45  93 S7        30.04F FOG
$$

IAZ064-065-067-068-078-231500-
   EAST CENTRAL IOWA

CITY           SKY/WX    TMP DP  RH WIND       PRES   REMARKS
DAVENPORT      PTSUNNY   47  38  71 SE10      30.13F
IOWA CITY      LGT RAIN  47  43  86 SE9       30.10S
MT. PLEASANT * CLOUDY    48  43  81 S10       30.11S
MUSCATINE *    CLOUDY    48  43  81 SE5       30.12S
QUAD CITIES    CLOUDY    48  40  73 S10       30.13F
$$

IAZ062-063-075>077-085>089-095>099-231500-
   SOUTHEAST IOWA

CITY           SKY/WX    TMP DP  RH WIND       PRES   REMARKS
BURLINGTON     CLOUDY    51  43  74 S13       30.13R
FAIRFIELD *    CLOUDY    50  43  76 S12       30.08S
FORT MADISON * PTSUNNY   52  45  76 S6        30.14R
KEOKUK *       PTSUNNY   54  43  66 S9        30.12R
OSKALOOSA *    CLOUDY    52  45  76 S5        30.08R
CENTERVILLE *  SUNNY     54  48  82 S7        30.09R
OTTUMWA        CLOUDY    52  45  77 S5        30.07R
WASHINGTON *   PTSUNNY   50  45  81 S12       30.09S
$$

ABBREVIATIONS USED IN REMARKS
   TC - TEMPERATURES IN CELSIUS
  WCI - WIND CHILL INDEX
   HX - HEAT INDEX
  VSB - VISIBILITY
$$




USA.gov is the U.S. government's official web portal to all federal, state and local government web resources and services.